This is the latest recevied weather packets stored in our database for station/object SQ8SW-4. If no packets are shown the sender has not sent any weather packets the latest 10 day(s).
| Time | Temp. | Humidity | Pressure | Rain* | Wind** | Luminosity | Snow |
|---|---|---|---|---|---|---|---|
| 1777721256 | 18.89° C | 41% | 996 hPa | - | - | - | - |
| 1777720354 | 18.33° C | 41% | 996 hPa | - | - | - | - |
| 1777719452 | 18.33° C | 41% | 996 hPa | - | - | - | - |
| 1777718549 | 17.78° C | 43% | 996 hPa | - | - | - | - |
| 1777717647 | 17.78° C | 43% | 996 hPa | - | - | - | - |
| 1777716745 | 17.78° C | 43% | 996 hPa | - | - | - | - |
| 1777715843 | 17.22° C | 44% | 996 hPa | - | - | - | - |
| 1777714940 | 17.22° C | 44% | 997 hPa | - | - | - | - |
| 1777714038 | 16.67° C | 44% | 997 hPa | - | - | - | - |
| 1777713136 | 16.67° C | 47% | 997 hPa | - | - | - | - |
| 1777712234 | 16.67° C | 46% | 997 hPa | - | - | - | - |
| 1777711332 | 16.11° C | 51% | 997 hPa | - | - | - | - |
| 1777710429 | 16.11° C | 51% | 997 hPa | - | - | - | - |
| 1777709527 | 15.56° C | 53% | 997 hPa | - | - | - | - |
| 1777708625 | 15° C | 55% | 997 hPa | - | - | - | - |
| 1777707723 | 14.44° C | 56% | 997 hPa | - | - | - | - |
| 1777706820 | 14.44° C | 59% | 998 hPa | - | - | - | - |
| 1777705918 | 13.33° C | 59% | 997 hPa | - | - | - | - |
| 1777705016 | 12.78° C | 63% | 998 hPa | - | - | - | - |
| 1777704113 | 12.22° C | 65% | 998 hPa | - | - | - | - |
| 1777703211 | 11.67° C | 67% | 998 hPa | - | - | - | - |
| 1777702309 | 11.11° C | 68% | 998 hPa | - | - | - | - |
| 1777701407 | 10° C | 72% | 998 hPa | - | - | - | - |
| 1777700504 | 9.44° C | 75% | 997 hPa | - | - | - | - |
| 1777699602 | 8.89° C | 76% | 997 hPa | - | - | - | - |
* Rain since midnight (hover to see other rain measurements)
** Current wind speed in m/s (hover to see current wind gust speed)